Hourly Data Report for June 02, 2021

WESTERN HEAD
NOVA SCOTIA
Current Station Operator: ECCC - MSC

43°59'24.070" N
64°39'51.008" W
10.10 m
8206240
71411
WWE

Download Data

Hourly Data (June 2021)
Hourly Data Report for June 2, 2021
TIME
LST
Temp Definition
°C
Dew Point Definition
°C
Rel Hum Definition
%
Precip. Amount Definition
mm

Wind Dir Definition
10's deg

Wind Spd Definition
km/h
Visibility Definition
km
Stn Press Definition
kPa
Hmdx Definition


Wind Chill Definition


Weather Definition


00:00 9.3 7.8 90 0.0 23 9   101.92     LegendNANA
01:00 8.9 8.9 100 0.0 22 14   101.90     LegendNANA
02:00 8.1 8.1 100 0.0 22 5   101.88     LegendNANA
03:00 7.8 7.8 100 0.0 24 7   101.87     LegendNANA
04:00 7.3 7.3 100 0.0 23 9   101.86     LegendNANA
05:00 8.3 LegendMM LegendMM 0.0 22 11   101.90     LegendNANA
06:00 9.1 LegendMM LegendMM 0.0 22 9   101.93     LegendNANA
07:00 10.9 10.9 100 0.0 22 11   101.96     LegendNANA
08:00 11.6 9.1 84 0.0 21 11   101.97     LegendNANA
09:00 13.9 9.7 76 0.0 21 8   101.97     LegendNANA
10:00 13.0 9.3 78 0.0 20 13   101.97     LegendNANA
11:00 14.9 8.9 68 0.0 20 12   101.97     LegendNANA
12:00 14.5 10.0 74 0.0 20 15   101.96     LegendNANA
13:00 14.2 10.3 77 0.0 20 14   101.94     LegendNANA
14:00 13.3 9.9 79 0.0 20 13   101.91     LegendNANA
15:00 14.1 8.8 71 0.0 20 20   101.90     LegendNANA
16:00 16.0 9.2 64 0.0 22 12   101.89     LegendNANA
17:00 14.1 8.8 70 0.0 22 13   101.90     LegendNANA
18:00 13.9 8.8 71 0.0 21 13   101.96     LegendNANA
19:00 13.3 9.5 78 0.0 22 15   102.00     LegendNANA
20:00 12.2 8.7 79 0.0 24 6   102.06     LegendNANA
21:00 12.5 9.3 81 0.0 24 8   102.11     LegendNANA
22:00 12.3 8.3 77 0.0 24 10   102.14     LegendNANA
23:00 10.3 8.2 87 0.0 20 10   102.15     LegendNANA

Notes on Data Quality.

Legend

  • E = Estimated
  • M = Missing
  • NA = Not Available*
  • [empty] = Indicates an unobserved value
Date modified: